Tracking 19242 objects as of 16-Aug-2018
HD Live streaming from Space Station
objects crossing your sky now

NOAA 16 DEB

Track NOAA 16 DEB now!
10-day predictions


NORAD ID: 41084
Int'l Code: 2000-055AT
Perigee: 832.2 km
Apogee: 859.2 km
Inclination: 98.8 °
Period: 101.7 minutes
Semi major axis: 7216 km
RCS: Unknown
Launch date: September 21, 2000
Source: United States (US)
Launch site: AIR FORCE WESTERN TEST RANGE (AFWTR)

Note: This is SATELLITE DEBRIS
aabbcc
Your satellite tracking list
Your tracking list is empty




NASA's NSSDC Master Catalog

Two Line Element Set (TLE):
1 41084U 00055AT  18227.91167794 +.00000413 +00000-0 +23089-3 0  9994
2 41084 098.8490 306.5139 0018720 151.5732 208.6467 14.16095251140390
Source of the keplerian elements: AFSPC